Location: Malvern Link
(52.1333°N, 2.3000°W)
Time: 12:05:07
(UTC+00:00)

MOZHAYETS 4 - Pass Details

Date: 05 July 2022
Orbit: 660 x 679 km, 98.2° (Epoch: 10 August)

Event Time Altitude Azimuth Distance (km) Brightness Sun altitude
Exits shadow 01:33:24 - 141° (SE) 2,943 10.7 -13.1°
Reaches altitude 10° 01:35:32 10° 135° (SE) 2,107 10.0 -13.0°
Maximum altitude 01:39:50 40° 66° (ENE) 989 9.0 -12.7°
Drops below altitude 10° 01:44:08 10° 357° (N) 2,110 11.4 -12.5°
Sets 01:46:27 0° 351° (N) 3,025 12.2 -12.4°
